Weather reports worldwide

Advertisment
Gogerddan, United Kingdom (99150): temperature & dewpoint: 18.05.2017 20:00:00 - 24.05.2017 20:00:00 (BST)Gogerddan, United Kingdom (99150): temperature 5cm: 18.05.2017 20:00:00 - 24.05.2017 20:00:00 (BST)Gogerddan, United Kingdom (99150): temperature -20cm & temperature -100cm: 18.05.2017 20:00:00 - 24.05.2017 20:00:00 (BST)Gogerddan, United Kingdom (99150): wind speed: 18.05.2017 20:00:00 - 24.05.2017 20:00:00 (BST)Gogerddan, United Kingdom (99150): wind direction: 18.05.2017 20:00:00 - 24.05.2017 20:00:00 (BST)Gogerddan, United Kingdom (99150): visibility: 18.05.2017 20:00:00 - 24.05.2017 20:00:00 (BST)Gogerddan, United Kingdom (99150): precipitation: 18.05.2017 20:00:00 - 24.05.2017 20:00:00 (BST)
Date & Time tt [°C] td [°C] tt 5cm [°C] tt -20cm [°C] tt -100cm [°C] ff [km/h] ff [kn] dd vv [km] rr [mm]
24.05.2017 20:00:00 14,0 13,0 - - - - - - - 0,0
24.05.2017 19:00:00 14,1 13,1 - - - - - - - 0,0
24.05.2017 18:00:00 14,3 13,2 - - - - - - - 0,0
24.05.2017 17:00:00 14,4 13,2 - - - - - - - 0,0
24.05.2017 16:00:00 14,5 13,0 - - - - - - - 0,0
24.05.2017 15:00:00 14,7 13,0 - - - - - - - 0,0
24.05.2017 14:00:00 15,0 13,7 - - - - - - - 0,0
24.05.2017 13:00:00 15,2 14,2 - - - - - - - 0,0
24.05.2017 12:00:00 14,3 13,3 - - - - - - - 0,0
24.05.2017 11:00:00 14,3 13,4 - - - - - - - 0,0
24.05.2017 10:00:00 14,2 12,9 15,3 13,0 11,7 - - N 5 0,0
24.05.2017 09:00:00 14,9 13,5 - - - - - - - 0,0
24.05.2017 08:00:00 14,7 14,6 - - - - - - - 0,0
24.05.2017 07:00:00 12,7 12,6 - - - - - - - 0,0
24.05.2017 06:00:00 10,7 10,6 - - - - - - - 0,0
24.05.2017 05:00:00 10,1 9,9 - - - - - - - 0,0
24.05.2017 04:00:00 10,4 10,1 - - - - - - - 0,0
24.05.2017 03:00:00 11,2 10,7 - - - - - - - 0,0
24.05.2017 02:00:00 12,8 12,1 - - - - - - - 0,0
24.05.2017 01:00:00 13,8 12,9 - - - - - - - 0,0
24.05.2017 00:00:00 13,7 12,9 - - - - - - - 0,0
23.05.2017 23:00:00 13,7 12,9 - - - - - - - 0,0
23.05.2017 22:00:00 13,7 12,8 - - - - - - - 0,0
23.05.2017 21:00:00 14,1 12,8 - - - - - - - 0,0
23.05.2017 20:00:00 14,9 12,9 - - - - - - - 0,0
23.05.2017 19:00:00 14,5 12,7 - - - - - - - 0,0
23.05.2017 18:00:00 15,6 13,6 - - - - - - - 0,0
23.05.2017 17:00:00 17,8 14,3 - - - - - - - 0,0
23.05.2017 16:00:00 15,5 13,8 - - - - - - - 0,0
23.05.2017 15:00:00 15,7 13,7 - - - - - - - 0,0
23.05.2017 14:00:00 14,4 13,8 - - - - - - - 0,0
23.05.2017 13:00:00 14,2 13,8 - - - - - - - 0,0
23.05.2017 12:00:00 13,2 12,8 - - - - - - - 0,0
23.05.2017 11:00:00 13,4 13,2 - - - - - - - 0,0
23.05.2017 10:00:00 13,2 13,0 13,6 12,9 11,7 68 37 N 27 0,0
23.05.2017 09:00:00 13,5 13,2 - - - - - - - 0,2
23.05.2017 08:00:00 13,1 12,8 - - - - - - - 0,6
23.05.2017 07:00:00 12,6 12,2 - - - - - - - 0,4
23.05.2017 06:00:00 12,3 11,8 - - - - - - - 0,6
23.05.2017 05:00:00 12,2 11,4 - - - - - - - 0,0
23.05.2017 04:00:00 12,3 11,4 - - - - - - - 0,6
23.05.2017 03:00:00 12,5 10,3 - - - - - - - 0,0
23.05.2017 02:00:00 12,9 10,1 - - - - - - - 0,0
23.05.2017 01:00:00 13,1 9,8 - - - - - - - 0,0
23.05.2017 00:00:00 12,3 10,3 - - - - - - - 0,0
22.05.2017 23:00:00 12,2 9,7 - - - - - - - 0,0
22.05.2017 22:00:00 12,2 9,9 - - - - - - - 0,0
22.05.2017 21:00:00 12,7 10,8 - - - - - - - 0,0
22.05.2017 20:00:00 14,2 10,0 - - - - - - - 0,0
22.05.2017 19:00:00 14,5 10,9 - - - - - - - 0,0
22.05.2017 18:00:00 15,0 11,7 - - - - - - - 0,0
22.05.2017 17:00:00 14,9 11,9 - - - - - - - 0,0
22.05.2017 16:00:00 15,6 12,4 - - - - - - - 0,0
22.05.2017 15:00:00 15,8 12,8 - - - - - - - 0,0
22.05.2017 14:00:00 20,1 12,9 - - - - - - - 0,0
22.05.2017 13:00:00 19,8 13,0 - - - - - - - 0,0
22.05.2017 12:00:00 19,1 11,9 - - - - - - - 0,0
22.05.2017 11:00:00 19,0 11,4 - - - - - - - 0,0
22.05.2017 10:00:00 17,4 10,7 - 12,7 11,7 - - - 10 0,0
22.05.2017 09:00:00 17,2 10,5 - - - - - - - 0,0
22.05.2017 08:00:00 16,3 10,2 - - - - - - - 0,0
22.05.2017 07:00:00 15,5 9,7 - - - - - - - 0,0
22.05.2017 06:00:00 15,0 9,2 - - - - - - - 0,0
22.05.2017 05:00:00 14,3 8,7 - - - - - - - 0,0
22.05.2017 04:00:00 14,0 8,4 - - - - - - - 0,0
22.05.2017 03:00:00 12,8 8,5 - - - - - - - 0,0
22.05.2017 02:00:00 10,5 8,2 - - - - - - - 0,0
22.05.2017 01:00:00 11,8 7,6 - - - - - - - 0,0
22.05.2017 00:00:00 13,5 7,8 - - - - - - - 0,0
21.05.2017 23:00:00 14,2 7,9 - - - - - - - 0,0
21.05.2017 22:00:00 14,5 7,6 - - - - - - - 0,0
21.05.2017 21:00:00 16,0 6,9 - - - - - - - 0,0
21.05.2017 20:00:00 16,9 7,1 - - - - - - - 0,0
21.05.2017 19:00:00 17,3 7,4 - - - - - - - 0,0
21.05.2017 18:00:00 18,5 6,8 - - - - - - - 0,0
21.05.2017 17:00:00 18,0 8,5 - - - - - - - 0,0
21.05.2017 16:00:00 17,2 7,2 - - - - - - - 0,0
21.05.2017 15:00:00 16,5 7,5 - - - - - - - 0,0
21.05.2017 14:00:00 16,8 9,3 - - - - - - - 0,0
21.05.2017 13:00:00 15,8 8,9 - - - - - - - 0,0
21.05.2017 12:00:00 14,9 8,8 - - - - - - - 0,0
21.05.2017 11:00:00 15,0 9,5 - - - - - - - 0,0
21.05.2017 10:00:00 13,8 8,5 14,7 12,5 11,7 - - N - 0,0
21.05.2017 09:00:00 13,5 9,0 - - - - - - - 0,0
21.05.2017 08:00:00 12,4 9,7 - - - - - - - 0,0
21.05.2017 07:00:00 11,7 9,2 - - - - - - - 0,0
21.05.2017 06:00:00 11,5 8,9 - - - - - - - 0,0
21.05.2017 05:00:00 11,4 9,0 - - - - - - - 0,0
21.05.2017 04:00:00 11,2 8,7 - - - - - - - 0,0
21.05.2017 03:00:00 10,9 8,5 - - - - - - - 0,0
21.05.2017 02:00:00 10,5 8,3 - - - - - - - 0,0
21.05.2017 01:00:00 9,7 7,5 - - - - - - - 0,0
21.05.2017 00:00:00 9,9 7,3 - - - - - - - 0,0
20.05.2017 23:00:00 11,0 7,8 - - - - - - - 0,0
20.05.2017 22:00:00 11,7 7,4 - - - - - - - 0,0
20.05.2017 21:00:00 11,6 7,8 - - - - - - - 0,0
20.05.2017 20:00:00 12,0 7,3 - - - - - - - 0,0
20.05.2017 19:00:00 12,8 7,9 - - - - - - - 0,0
20.05.2017 18:00:00 13,5 8,3 - - - - - - - 0,0
20.05.2017 17:00:00 13,2 7,9 - - - - - - - 0,0
20.05.2017 16:00:00 13,7 8,0 - - - - - - - 0,0
20.05.2017 15:00:00 13,2 8,2 - - - - - - - 0,0
20.05.2017 14:00:00 12,7 8,7 - - - - - - - 0,0
20.05.2017 13:00:00 11,9 8,0 - - - - - - - 0,0
20.05.2017 12:00:00 12,7 10,0 - - - - - - - 0,0
20.05.2017 11:00:00 11,5 9,5 - - - - - - - 1,2
20.05.2017 10:00:00 10,7 9,0 10,8 12,5 11,5 - - N 2,0 0,2
20.05.2017 09:00:00 10,5 8,9 - - - - - - - 0,0
20.05.2017 08:00:00 9,9 8,8 - - - - - - - 0,4
20.05.2017 07:00:00 9,3 7,6 - - - - - - - 0,0
20.05.2017 06:00:00 8,7 7,2 - - - - - - - 0,0
20.05.2017 05:00:00 8,0 6,8 - - - - - - - 0,0
20.05.2017 04:00:00 7,1 6,0 - - - - - - - 0,0
20.05.2017 03:00:00 7,0 6,2 - - - - - - - 0,0
20.05.2017 02:00:00 7,3 6,5 - - - - - - - 0,0
20.05.2017 01:00:00 6,3 5,4 - - - - - - - 0,0
20.05.2017 00:00:00 7,3 5,9 - - - - - - - 0,0
19.05.2017 23:00:00 8,3 6,3 - - - - - - - 0,0
19.05.2017 22:00:00 10,1 6,8 - - - - - - - 0,0
19.05.2017 21:00:00 10,6 6,9 - - - - - - - 0,0
19.05.2017 20:00:00 11,8 7,2 - - - - - - - 0,0
19.05.2017 19:00:00 11,6 7,5 - - - - - - - 0,0
19.05.2017 18:00:00 13,1 8,5 - - - - - - - 0,0
19.05.2017 17:00:00 13,3 8,8 - - - - - - - 0,0
19.05.2017 16:00:00 13,4 9,2 - - - - - - - 0,0
19.05.2017 15:00:00 13,2 8,5 - - - - - - - 0,0
19.05.2017 14:00:00 13,9 7,4 - - - - - - - 0,0
19.05.2017 13:00:00 13,5 7,9 - - - - - - - 0,0
19.05.2017 12:00:00 13,6 9,2 - - - - - - - 0,0
19.05.2017 11:00:00 12,2 6,3 - - - - - - - 0,0
19.05.2017 10:00:00 12,6 8,1 12,9 12,5 11,4 94 51 N 0,6 0,0
19.05.2017 09:00:00 11,2 7,6 - - - - - - - 0,0
19.05.2017 08:00:00 9,6 8,2 - - - - - - - 0,0
19.05.2017 07:00:00 6,9 6,5 - - - - - - - 0,0
19.05.2017 06:00:00 5,6 5,0 - - - - - - - -
19.05.2017 05:00:00 6,0 5,5 - - - - - - - 0,0
19.05.2017 04:00:00 6,4 5,8 - - - - - - - 0,0
19.05.2017 03:00:00 6,5 6,0 - - - - - - - 0,0
19.05.2017 02:00:00 6,4 5,9 - - - - - - - 0,0
19.05.2017 01:00:00 6,2 5,2 - - - - - - - 0,0
19.05.2017 00:00:00 7,9 6,8 - - - - - - - 0,0
18.05.2017 23:00:00 8,9 7,3 - - - - - - - 0,0
18.05.2017 22:00:00 9,5 7,4 - - - - - - - 0,0
18.05.2017 21:00:00 10,7 6,9 - - - - - - - 0,0
18.05.2017 20:00:00 11,9 7,4 - - - - - - - 0,0

tt = temperature
td = dewpoint
tt 5cm = temperature 5cm
tt -20cm = temperature -20cm
tt -100cm = temperature -100cm
ff = wind speed
dd = wind direction
vv = visibility
rr = precipitation

Next stations